カタログに戻る

STARLINK-5154

運用中通信VLEO
NORAD 54176·PAYLOAD·🇺🇸 United States

打ち上げ Oct 28, 2022 から Vandenberg Space Force Base

Loading…

次のパス (今後24時間)

TLE

最新Source: CelesTrak SupGP

元期: Sep 14, 2026, 21:32 UTC

1 54176C 22141V   26257.89770833  .00017523  00000+0  51754-3 0  2579
2 54176  53.1570 219.6093 0001457  97.1999  67.1297 15.34391992    16

AllMySatでSTARLINK-5154をリアルタイム追跡

Download on the App Store